Temperature
23 23 23 22 21 20 22 23 24 24 23 24 24 23 22 20 21 20 20 20 20 20 19 19 19 19 19 19 19 19 19 19 19 19 19 19 19 19 19 18 18 18 18 18 18 18 18 18 18
24 23 23 22 20 21 22 23 23 24 24 24 24 22 21 19 19 19 20 20 20 20 20 19 19 19 19 19 19 19 19 19 19 19 19 19 19 19 18 18 18 18 18 18 18 18 18 18 18
24 23 23 20 21 21 23 24 23 24 25 24 23 22 20 19 19 20 21 20 20 20 20 20 19 19 19 19 19 19 19 19 19 19 19 19 19 18 18 18 18 18 18 18 18 18 18 18 18
24 24 23 21 23 23 23 24 24 24 24 24 23 21 20 20 20 21 21 20 20 20 20 20 20 19 19 19 19 19 19 19 19 19 19 19 18 18 18 18 18 18 18 18 18 18 18 18 18
24 24 21 21 23 24 24 24 24 24 24 23 22 20 19 20 21 21 21 20 20 20 20 20 19 19 19 19 19 19 19 19 19 19 19 18 18 18 18 18 18 18 18 18 18 18 18 17 17
25 21 21 22 23 24 24 25 24 23 23 23 22 20 19 20 21 21 21 21 20 20 20 20 19 19 19 19 19 19 19 19 19 19 19 18 18 18 18 18 18 18 18 18 17 17 17 17 17
23 20 22 23 23 24 25 25 24 23 23 23 22 19 19 19 21 21 21 20 20 20 20 20 19 19 19 19 19 19 19 19 19 19 19 18 18 18 18 18 18 18 18 18 17 17 17 17 17
25 20 22 22 24 24 25 25 24 24 23 23 23 20 19 20 20 21 20 20 20 20 20 20 20 19 19 19 19 19 19 19 19 19 19 18 18 18 18 18 18 18 18 18 17 17 17 17 17
25 21 22 23 24 25 25 24 24 24 24 23 23 22 22 21 20 20 20 20 20 20 20 20 20 20 19 19 19 19 19 19 19 19 18 18 18 18 18 18 18 18 18 18 17 17 17 17 17
24 21 24 24 24 24 25 25 25 24 23 23 22 22 22 21 20 20 20 20 20 20 20 20 20 20 19 19 19 19 19 19 19 19 18 18 18 18 18 18 18 18 18 17 17 17 17 17 17
23 23 24 25 26 26 25 25 25 24 22 23 22 22 21 21 20 21 21 21 21 21 20 20 20 20 19 19 19 19 19 19 19 19 19 18 18 18 18 18 18 18 18 18 17 17 17 17 17
24 24 26 26 27 26 25 25 24 24 25 25 24 23 22 21 21 21 21 21 21 21 21 20 20 20 20 19 19 19 19 19 19 19 19 18 18 18 18 18 18 18 18 18 18 18 18 17 17
25 25 26 27 26 26 25 25 25 25 25 25 24 23 22 22 22 21 21 21 21 21 21 21 20 20 20 19 19 19 19 19 19 19 19 18 18 18 18 18 18 18 18 18 18 18 18 17 17
25 25 26 26 26 26 25 25 25 25 25 24 23 22 22 22 22 21 21 21 21 21 21 21 21 20 20 20 19 19 19 19 19 19 19 19 18 18 18 18 18 18 18 18 18 18 18 18 17
25 25 25 25 26 26 25 24 24 25 24 23 22 21 21 21 22 22 22 22 21 21 21 21 21 20 20 20 20 19 19 19 19 19 18 18 18 18 18 18 18 18 18 18 18 18 18 18 17
24 24 24 25 25 25 25 24 24 24 23 22 21 21 21 21 21 22 22 22 21 21 21 21 20 20 20 20 19 19 19 19 19 18 18 18 18 18 18 18 18 18 18 18 18 18 18 18 17
22 23 24 25 25 25 25 24 24 24 23 22 21 21 21 21 21 22 22 22 22 21 21 21 20 20 20 19 19 19 19 19 18 18 18 18 18 18 18 18 18 18 18 18 18 17 17 18 17
23 24 24 24 24 24 24 23 23 23 23 22 22 21 21 21 22 22 22 22 22 21 21 21 20 20 20 19 19 19 19 18 18 18 18 18 18 18 18 18 18 18 18 18 17 17 17 17 17
23 24 23 23 24 24 23 23 22 22 22 22 22 21 21 22 23 22 22 22 22 21 21 21 20 20 20 19 19 19 19 19 19 18 18 18 18 18 18 18 18 18 18 18 18 17 17 17 17
23 23 23 23 24 24 23 23 22 22 22 22 22 22 22 22 22 22 22 22 22 21 21 21 20 20 20 20 19 19 19 19 19 18 18 18 18 18 18 18 18 18 18 17 17 17 17 17 17
23 23 23 24 23 23 24 23 22 22 22 23 23 22 22 22 23 23 22 22 22 22 21 21 21 20 20 20 19 19 19 18 18 18 18 18 18 18 18 18 18 18 18 18 18 17 17 17 17
22 23 23 24 23 21 23 22 22 21 21 21 22 22 22 23 23 23 23 23 22 22 22 21 21 20 20 19 19 19 19 18 19 18 18 18 18 18 18 18 18 18 18 18 18 17 17 17 17
23 24 23 23 22 21 21 21 20 20 21 21 21 22 22 23 23 23 23 23 22 22 22 21 21 20 20 19 19 19 18 18 18 18 18 18 18 18 18 18 18 18 18 18 18 17 17 17 17
23 22 20 18 19 21 22 21 21 19 21 21 21 22 22 23 23 23 23 23 22 22 22 21 21 20 20 19 19 19 19 18 18 18 18 18 18 18 18 18 17 18 18 18 18 17 17 17 17
22 20 19 20 19 19 20 21 20 20 20 20 21 22 22 23 23 23 23 22 22 22 21 21 21 20 20 19 19 19 18 18 18 18 18 18 18 18 18 18 18 18 17 17 17 17 17 17 17
21 20 19 20 20 19 20 20 20 20 20 21 21 22 22 22 22 23 23 22 22 21 21 21 20 20 20 19 19 19 18 18 18 18 18 18 18 18 18 17 17 17 17 17 17 17 17 17 17
20 20 19 18 19 20 19 19 20 20 20 20 20 21 22 22 22 22 22 22 21 21 21 21 20 20 19 19 19 18 18 18 18 18 18 18 18 18 17 17 17 17 17 17 17 17 17 17 17
21 18 17 17 19 20 21 20 20 21 20 20 19 20 21 22 22 22 22 21 21 21 21 20 20 20 19 19 19 18 18 18 18 18 18 18 17 17 17 17 17 17 17 17 17 17 17 17 17
20 19 17 16 17 18 20 20 20 20 19 19 19 20 21 21 21 21 21 21 21 21 20 20 20 19 19 19 18 18 18 18 17 18 18 18 17 17 17 17 17 17 17 17 17 17 16 16 16
21 19 17 19 18 17 18 19 20 19 19 18 19 20 21 21 21 21 21 21 20 20 20 20 19 19 19 18 18 18 18 18 17 17 18 17 17 17 17 17 17 17 17 16 16 16 16 16 16
Wind_Speed
3 3 3 1 5 6 4 4 1 2 2 2 5 6 7 4 2 4 4 10 14 12 13 16 16 16 16 17 17 17 18 18 17 17 17 16 16 16 15 15 15 16 16 16 16 17 17 17 17
2 3 1 3 6 5 4 3 3 3 4 5 6 6 7 5 5 8 7 10 14 13 13 15 17 17 16 16 17 17 17 17 16 16 16 15 15 15 15 15 15 15 16 16 16 16 16 16 16
2 1 3 5 4 3 0 1 2 3 4 4 5 6 5 4 7 6 8 14 13 11 13 16 17 17 16 16 16 16 16 16 15 15 15 14 14 14 14 14 14 15 15 15 15 16 16 16 15
2 3 4 5 3 1 2 2 2 3 4 6 5 6 5 4 5 7 15 15 13 10 13 16 17 16 16 16 15 15 15 15 14 14 14 13 13 13 13 13 13 14 14 14 15 15 15 15 14
3 4 6 4 2 2 1 2 1 2 3 4 5 5 4 4 11 15 15 15 13 10 11 15 17 16 16 15 15 14 14 14 13 13 13 12 12 12 12 12 13 13 13 13 14 14 14 14 13
4 5 6 2 3 2 1 1 3 4 4 4 5 5 3 5 12 15 14 12 11 10 10 14 17 16 15 15 15 14 13 13 13 13 12 11 11 12 12 12 12 12 12 12 13 13 13 12 12
4 5 3 1 1 1 2 2 3 4 4 3 5 6 4 6 9 12 11 10 9 9 9 10 13 15 15 15 14 14 13 13 12 12 12 11 11 11 11 11 11 11 11 11 12 12 11 11 11
5 5 3 0 1 2 2 2 2 4 3 4 5 8 7 9 11 12 11 10 9 7 6 7 9 11 12 13 14 13 13 12 12 12 11 11 10 10 10 9 10 10 10 10 11 10 9 9 9
4 5 1 3 4 3 3 3 2 3 5 3 4 5 8 18 16 14 13 10 9 9 6 5 7 8 9 10 12 13 13 12 12 11 11 9 8 8 8 8 8 9 9 9 9 9 8 8 7
4 3 6 5 5 5 5 4 5 4 4 3 5 9 17 19 17 17 16 15 14 12 10 6 6 7 8 9 9 9 9 10 9 8 9 8 7 7 6 7 8 7 7 7 7 7 7 7 6
4 5 4 3 4 5 6 5 4 8 5 7 10 17 21 19 16 15 15 14 13 12 11 8 7 7 7 5 7 7 7 7 8 8 8 8 6 5 5 4 4 5 5 5 5 5 5 5 5
2 4 4 3 4 5 6 6 4 7 6 7 15 21 22 20 18 17 16 13 10 11 11 9 8 7 7 6 6 6 6 6 6 7 8 7 4 3 3 3 3 4 4 4 4 3 4 4 3
1 4 3 3 3 5 6 6 5 5 2 11 17 18 19 19 16 13 11 12 11 12 12 11 9 8 7 6 6 6 6 6 7 7 8 8 5 3 3 2 3 3 3 3 2 2 2 2 2
3 3 4 1 2 4 6 3 2 4 9 14 17 17 17 17 16 13 12 12 13 13 12 11 11 9 8 6 5 6 7 8 8 8 9 9 8 5 4 3 3 3 3 3 3 2 2 1 2
2 3 5 3 2 2 6 1 5 4 12 14 16 16 15 14 13 14 15 14 14 13 12 12 11 9 9 8 7 7 7 8 7 8 10 10 10 8 6 4 4 4 4 4 3 2 2 1 2
4 4 3 4 2 2 7 6 7 8 13 13 14 14 13 12 13 13 13 12 12 11 11 12 12 11 10 8 7 6 8 8 8 9 10 11 12 11 8 5 5 6 5 4 3 2 1 1 2
6 3 1 4 2 2 3 6 5 8 12 12 13 13 12 10 11 11 12 12 12 12 12 12 11 12 11 9 7 7 7 7 8 9 9 11 12 12 9 6 6 7 5 4 3 2 2 2 3
2 1 2 3 3 1 2 6 4 7 11 12 11 11 11 12 13 11 11 11 11 10 11 11 11 10 10 7 5 4 5 5 7 8 10 12 12 12 11 7 7 7 4 4 4 3 2 2 2
4 1 3 5 3 1 4 6 5 7 8 9 9 10 11 12 9 8 9 10 10 10 10 11 11 10 8 6 6 6 6 6 5 7 11 12 12 12 11 7 6 6 6 6 6 4 3 2 2
3 1 3 4 2 0 2 4 3 6 10 11 11 11 11 9 7 8 8 9 11 11 11 11 12 11 10 8 6 4 4 4 5 5 8 12 12 12 11 9 7 7 6 6 6 5 3 2 3
3 5 4 3 5 5 2 6 4 2 3 5 6 7 8 10 11 10 10 11 10 11 12 11 11 10 9 8 5 3 2 1 2 4 5 8 12 12 11 10 8 7 7 7 7 7 6 4 3
4 6 5 2 2 3 2 2 6 3 3 5 6 7 8 9 9 9 9 9 10 11 10 9 9 9 8 8 7 7 6 5 6 5 5 6 10 11 11 10 9 8 7 7 8 7 5 5 4
7 2 3 1 3 1 3 2 7 2 4 8 8 8 8 8 9 8 9 9 8 8 8 8 8 8 8 8 9 9 7 6 4 4 6 6 6 8 9 9 9 8 7 8 7 7 7 6 5
5 7 7 6 5 1 2 3 6 4 7 6 7 7 7 7 6 6 5 5 5 6 7 7 7 7 7 8 9 9 9 7 6 6 6 6 5 5 7 8 8 8 7 8 8 7 8 7 6
6 6 4 4 4 5 3 2 8 7 7 8 8 7 6 6 6 6 6 6 5 6 7 7 7 7 7 8 8 8 8 8 9 7 7 6 4 5 7 7 7 7 7 8 8 8 8 8 7
7 10 8 6 5 4 2 5 7 6 6 5 4 4 4 5 5 5 6 7 7 6 6 6 7 6 6 6 6 5 5 5 5 6 6 6 5 5 5 7 7 7 8 8 7 7 7 6 8
8 5 8 7 4 1 5 6 8 3 3 2 0 2 3 4 4 5 5 5 6 6 6 6 6 5 5 5 5 4 4 4 4 4 4 4 4 4 6 6 7 7 7 7 7 6 7 6 7
7 10 7 7 6 3 4 5 5 6 5 3 2 2 2 3 4 4 5 5 5 5 5 5 6 5 4 4 4 4 3 3 3 2 3 3 4 4 4 6 6 6 6 6 6 5 6 7 6
6 6 6 6 6 7 3 7 7 8 7 6 5 3 3 4 5 5 5 5 5 5 5 5 4 4 3 3 3 3 2 2 2 2 2 3 2 3 4 5 5 5 5 5 5 6 6 7 6
7 9 9 7 5 5 5 8 5 6 5 5 4 2 2 4 4 5 5 5 5 5 4 4 4 3 3 3 3 3 2 2 2 1 1 1 2 2 2 3 3 4 4 4 5 6 5 6 6
Wind_Direction
195 166 150 105 57 50 31 349 11 75 69 82 113 105 109 97 138 145 122 136 133 137 143 141 137 131 126 122 120 118 117 116 116 115 115 114 113 111 110 109 109 108 107 107 107 107 107 108 109
155 167 112 61 74 62 355 342 33 48 118 108 88 82 79 72 75 107 128 138 136 138 140 143 139 135 131 127 124 122 121 120 119 118 117 116 114 113 112 111 110 109 109 109 109 109 109 109 110
190 180 80 65 78 128 142 335 83 61 70 80 79 68 78 104 120 126 142 138 132 134 139 147 143 139 135 131 128 126 125 124 124 122 120 119 117 115 114 113 111 111 111 111 111 110 111 113 113
119 52 53 65 70 224 188 197 126 81 49 54 88 73 67 83 122 131 137 138 133 132 142 150 145 143 140 136 133 131 130 129 129 128 125 123 122 120 118 116 114 113 112 112 113 113 115 116 116
69 72 58 51 344 313 194 182 90 75 58 63 83 83 52 27 112 128 137 140 139 137 144 151 149 148 145 143 139 137 135 135 134 132 130 128 127 124 121 119 117 116 114 113 115 115 118 120 119
53 64 71 45 331 339 284 167 96 83 85 87 89 89 60 116 127 137 139 139 141 141 142 152 154 153 150 148 144 143 141 140 138 137 135 133 130 128 126 123 121 119 118 117 117 116 117 120 121
90 80 109 151 292 297 216 127 117 116 106 112 114 100 107 142 139 136 133 133 134 137 139 149 156 157 156 153 150 148 147 145 143 142 140 139 136 132 131 127 125 123 122 121 121 119 118 119 122
112 94 82 155 176 241 171 120 125 129 122 113 117 137 162 164 140 129 127 130 133 135 138 144 150 154 156 157 156 155 155 152 150 149 148 148 145 142 136 132 130 128 127 126 125 122 120 120 122
88 72 150 212 187 214 163 140 136 99 114 120 120 151 154 143 139 136 139 144 152 157 150 146 145 149 153 159 164 163 161 160 158 158 156 149 141 140 139 141 139 136 135 130 128 126 122 118 120
91 132 221 213 187 181 170 163 159 123 133 111 86 103 131 144 151 155 161 166 171 174 173 163 156 155 158 167 163 162 160 160 158 155 146 139 138 142 144 153 151 145 141 134 130 127 118 109 107
150 192 231 233 192 171 159 163 155 139 194 196 160 147 150 156 163 168 173 176 178 175 177 174 167 164 165 160 153 152 150 152 154 152 148 145 142 142 137 143 144 140 137 121 121 114 112 115 120
183 249 229 227 154 159 165 159 160 182 222 176 157 155 158 167 175 179 179 179 173 175 183 177 174 170 173 165 160 156 154 158 161 164 161 154 149 151 149 149 139 128 123 116 112 113 123 127 144
228 287 289 231 163 161 151 170 175 213 162 128 142 155 168 175 181 182 179 177 176 184 187 182 180 180 176 171 172 170 172 176 178 177 178 176 171 174 174 175 168 157 146 138 130 130 137 144 168
270 292 312 297 136 154 150 170 151 215 141 139 153 168 179 183 181 177 178 183 185 189 189 184 187 185 178 180 180 177 183 184 186 190 193 192 191 187 183 189 194 194 184 172 161 162 160 162 184
320 356 4 21 89 143 119 153 228 182 147 153 166 176 183 189 186 188 188 188 188 191 189 187 190 185 184 187 189 186 187 188 193 200 203 202 200 196 191 193 205 210 198 181 166 164 153 187 209
44 50 17 319 42 111 134 227 240 159 158 167 175 181 186 194 196 196 192 190 188 186 188 191 195 190 192 192 190 189 190 193 201 207 208 208 205 202 196 198 211 209 194 181 175 180 187 212 217
33 50 355 318 351 110 151 241 255 164 169 177 182 186 189 193 202 200 195 193 190 189 188 190 194 191 194 193 189 194 194 198 203 205 210 212 209 206 202 205 211 202 190 187 197 189 190 208 220
187 74 335 293 300 82 205 251 263 182 182 187 187 188 191 199 206 198 191 190 189 190 188 190 193 191 186 183 179 188 201 207 205 206 211 209 207 204 202 207 209 197 189 192 192 190 192 201 207
144 140 284 270 260 199 230 254 255 197 191 192 194 195 199 208 203 187 185 184 183 187 188 190 192 190 179 178 186 192 207 209 205 210 213 207 204 201 198 204 200 197 200 200 193 184 192 205 162
149 255 285 304 353 148 257 291 282 195 204 201 198 200 202 202 193 190 182 187 188 191 192 191 194 191 188 192 188 188 189 198 207 207 208 209 204 200 202 200 198 196 197 197 193 183 179 195 171
198 201 226 266 354 23 50 346 338 286 224 212 211 206 203 201 200 197 193 196 193 196 196 196 194 191 191 185 170 158 142 143 190 204 211 212 207 205 205 202 199 196 195 202 201 194 186 193 194
240 221 200 216 55 328 41 292 299 297 271 233 222 208 206 206 203 199 197 199 198 198 192 191 187 186 187 179 180 182 191 203 209 206 209 211 209 207 206 204 200 200 201 205 206 200 195 183 196
205 162 141 106 137 33 14 146 287 318 262 253 235 220 215 208 200 201 202 199 196 188 185 187 181 186 186 187 190 192 203 210 207 205 205 213 211 208 208 207 203 203 205 207 205 195 197 196 197
147 71 54 47 73 53 274 168 274 249 237 252 242 227 216 208 196 194 190 171 179 182 178 177 180 192 187 192 198 201 203 205 204 210 210 214 212 210 210 210 208 206 205 207 207 204 204 205 205
111 95 41 9 20 247 288 198 248 257 252 240 238 228 212 197 186 178 168 171 178 179 177 176 181 195 194 197 205 210 209 207 211 212 211 208 209 212 215 214 209 209 211 211 206 205 209 206 207
166 142 155 180 206 264 321 234 255 268 278 262 235 209 188 185 181 172 171 170 171 179 176 173 181 192 192 198 210 210 205 207 214 208 204 207 211 216 214 213 213 212 213 215 207 208 211 208 212
134 160 155 130 145 125 284 287 301 274 303 303 206 158 171 179 167 161 157 156 161 166 169 171 174 181 187 194 196 197 196 203 215 211 206 206 211 216 212 212 219 218 214 211 203 209 211 205 211
141 141 111 124 144 209 283 275 254 261 258 259 238 204 181 152 141 141 141 148 155 160 153 151 163 175 180 181 189 194 195 200 206 204 212 212 217 221 212 211 216 216 212 209 206 210 210 206 214
115 108 112 116 144 152 219 264 230 228 224 221 226 214 181 155 148 144 141 140 134 127 134 146 153 152 159 176 183 178 185 191 189 204 217 218 218 211 213 210 208 210 212 210 206 212 206 207 211
153 159 146 149 184 164 170 260 270 233 218 203 208 200 161 146 141 135 128 122 122 126 133 141 147 154 163 162 157 162 165 158 169 202 217 201 206 213 210 202 203 209 213 208 204 210 207 205 208
Height
1487 1487 1487 1489 1492 1504 1508 1501 1495 1495 1495 1496 1498 1499 1502 1506 1510 1516 1513 1516 1520 1523 1526 1529 1531 1533 1535 1536 1537 1538 1539 1541 1542 1543 1544 1545 1546 1547 1548 1549 1550 1551 1552 1553 1554 1555 1556 1557 1558
1488 1488 1490 1490 1502 1518 1513 1500 1498 1496 1496 1497 1499 1501 1503 1506 1507 1509 1512 1517 1522 1525 1528 1531 1533 1535 1537 1538 1539 1541 1542 1543 1544 1546 1547 1548 1549 1550 1551 1552 1553 1553 1554 1555 1556 1557 1558 1559 1560
1489 1490 1492 1495 1507 1515 1510 1500 1498 1497 1497 1498 1501 1503 1505 1508 1509 1511 1514 1518 1523 1526 1529 1532 1535 1537 1539 1540 1542 1543 1544 1545 1547 1548 1549 1550 1551 1552 1553 1554 1555 1556 1557 1558 1559 1560 1561 1562 1563
1490 1492 1494 1502 1508 1505 1502 1498 1497 1497 1499 1500 1502 1506 1508 1511 1512 1513 1516 1520 1524 1528 1531 1534 1536 1539 1540 1542 1544 1545 1546 1547 1549 1550 1551 1552 1553 1555 1556 1556 1557 1558 1559 1560 1561 1562 1563 1564 1566
1491 1492 1501 1511 1508 1501 1498 1498 1498 1499 1500 1502 1503 1507 1511 1513 1514 1516 1519 1523 1526 1529 1533 1535 1538 1540 1542 1544 1545 1547 1548 1549 1551 1552 1553 1554 1556 1557 1558 1559 1559 1561 1562 1563 1564 1565 1566 1567 1568
1492 1495 1512 1517 1509 1501 1498 1498 1499 1500 1502 1504 1505 1508 1513 1514 1516 1519 1522 1525 1528 1531 1534 1537 1539 1541 1544 1545 1547 1548 1550 1551 1553 1554 1555 1556 1558 1559 1560 1561 1562 1563 1564 1565 1566 1567 1569 1570 1571
1495 1501 1511 1511 1509 1504 1499 1498 1500 1501 1503 1505 1506 1509 1513 1515 1518 1520 1523 1527 1530 1533 1535 1538 1540 1543 1545 1547 1548 1550 1551 1553 1554 1555 1557 1558 1559 1560 1562 1563 1564 1565 1566 1567 1568 1570 1571 1572 1573
1495 1501 1509 1511 1509 1505 1499 1499 1501 1501 1504 1506 1507 1508 1512 1515 1518 1521 1525 1528 1531 1534 1537 1539 1541 1544 1546 1547 1549 1551 1553 1554 1556 1557 1558 1559 1561 1562 1563 1564 1565 1567 1568 1569 1571 1572 1573 1574 1575
1496 1507 1513 1508 1505 1502 1499 1500 1502 1502 1504 1506 1507 1508 1510 1514 1518 1521 1525 1528 1532 1534 1537 1540 1542 1544 1546 1548 1550 1552 1553 1555 1557 1558 1559 1561 1562 1563 1564 1566 1567 1568 1570 1571 1572 1574 1575 1576 1577
1497 1509 1505 1498 1496 1497 1498 1499 1501 1503 1504 1506 1507 1509 1511 1514 1517 1520 1523 1526 1530 1533 1537 1540 1542 1545 1547 1549 1551 1552 1554 1556 1557 1559 1560 1562 1563 1564 1566 1567 1568 1570 1571 1572 1574 1575 1576 1577 1578
1496 1500 1496 1494 1494 1495 1497 1499 1501 1502 1505 1503 1504 1507 1511 1514 1517 1520 1523 1526 1529 1533 1536 1539 1542 1545 1547 1549 1551 1553 1555 1556 1558 1560 1561 1563 1564 1565 1566 1568 1569 1571 1572 1574 1575 1576 1577 1579 1580
1496 1494 1493 1492 1493 1495 1497 1499 1501 1501 1501 1501 1504 1506 1509 1512 1516 1519 1523 1527 1530 1533 1536 1539 1542 1545 1547 1550 1552 1553 1555 1557 1559 1560 1562 1563 1565 1566 1567 1569 1570 1572 1573 1575 1576 1577 1578 1580 1581
1495 1493 1491 1490 1492 1494 1496 1498 1499 1500 1501 1502 1505 1508 1510 1512 1516 1520 1524 1527 1530 1532 1535 1538 1541 1544 1547 1549 1551 1553 1555 1557 1559 1561 1562 1564 1565 1567 1568 1569 1571 1572 1574 1575 1577 1578 1579 1580 1581
1494 1493 1492 1491 1491 1494 1496 1498 1500 1500 1501 1503 1505 1508 1511 1513 1516 1520 1523 1526 1529 1532 1535 1538 1540 1543 1546 1548 1551 1553 1555 1557 1559 1561 1562 1564 1566 1567 1569 1570 1571 1573 1574 1576 1577 1578 1580 1581 1582
1493 1494 1494 1493 1493 1495 1497 1502 1499 1499 1501 1503 1506 1509 1512 1514 1517 1519 1522 1525 1529 1532 1535 1538 1540 1543 1545 1548 1550 1552 1554 1556 1558 1560 1562 1564 1566 1567 1569 1570 1571 1573 1574 1576 1577 1578 1579 1580 1581
1494 1500 1505 1497 1495 1495 1501 1508 1497 1499 1500 1503 1505 1509 1512 1514 1517 1520 1523 1526 1529 1532 1534 1537 1540 1542 1544 1547 1549 1552 1554 1556 1558 1560 1561 1563 1565 1567 1568 1569 1571 1573 1574 1575 1576 1578 1579 1580 1581
1506 1511 1509 1502 1496 1496 1500 1504 1496 1498 1500 1502 1504 1508 1511 1513 1516 1518 1521 1525 1528 1531 1534 1536 1538 1541 1543 1545 1548 1550 1553 1555 1557 1558 1560 1562 1564 1565 1567 1568 1570 1572 1573 1574 1575 1577 1578 1579 1580
1512 1510 1509 1507 1499 1498 1501 1502 1496 1497 1499 1501 1504 1507 1509 1511 1513 1516 1520 1523 1526 1529 1532 1534 1537 1539 1542 1544 1546 1549 1551 1553 1555 1556 1559 1560 1562 1563 1565 1567 1568 1570 1571 1573 1574 1575 1576 1578 1579
1503 1507 1510 1505 1497 1499 1502 1501 1497 1496 1498 1501 1503 1505 1507 1509 1512 1516 1519 1521 1524 1527 1529 1532 1534 1537 1539 1542 1544 1545 1547 1549 1551 1553 1556 1558 1560 1561 1563 1564 1566 1567 1569 1571 1572 1573 1574 1576 1577
1502 1507 1508 1503 1497 1498 1502 1501 1496 1495 1496 1497 1499 1502 1504 1508 1511 1514 1517 1519 1521 1524 1526 1529 1532 1534 1537 1539 1541 1543 1545 1547 1549 1551 1553 1555 1557 1558 1559 1561 1563 1565 1567 1569 1570 1571 1572 1573 1575
1502 1506 1505 1505 1501 1500 1502 1507 1501 1496 1496 1498 1499 1501 1503 1505 1507 1511 1513 1515 1518 1521 1523 1526 1529 1532 1534 1537 1539 1541 1543 1544 1546 1548 1549 1551 1553 1555 1556 1558 1560 1562 1564 1566 1567 1569 1570 1571 1572
1506 1497 1499 1501 1509 1517 1510 1524 1508 1501 1499 1497 1497 1498 1499 1501 1504 1507 1510 1512 1514 1517 1521 1524 1526 1529 1531 1534 1536 1537 1538 1540 1541 1544 1546 1548 1550 1552 1553 1555 1557 1559 1561 1562 1564 1566 1567 1568 1569
1496 1493 1496 1501 1508 1518 1516 1523 1517 1504 1502 1497 1494 1494 1495 1498 1500 1503 1506 1509 1512 1515 1518 1521 1524 1526 1528 1530 1532 1533 1535 1536 1538 1540 1542 1544 1546 1548 1549 1551 1553 1555 1557 1559 1561 1562 1564 1565 1566
1489 1497 1504 1513 1519 1530 1520 1523 1521 1509 1500 1494 1490 1491 1492 1495 1498 1500 1504 1507 1511 1513 1515 1518 1520 1523 1525 1527 1528 1529 1531 1532 1533 1535 1537 1539 1541 1543 1545 1547 1549 1551 1553 1555 1556 1558 1559 1560 1562
1492 1511 1531 1531 1541 1537 1522 1522 1518 1498 1493 1490 1488 1488 1489 1492 1495 1497 1500 1504 1507 1510 1512 1514 1517 1519 1521 1523 1525 1526 1528 1529 1530 1531 1533 1535 1537 1539 1541 1543 1544 1546 1548 1550 1552 1553 1555 1556 1557
1494 1504 1529 1539 1542 1536 1523 1523 1507 1493 1489 1487 1486 1487 1488 1490 1493 1495 1498 1502 1504 1507 1510 1513 1515 1517 1519 1520 1522 1524 1525 1526 1527 1528 1530 1531 1533 1535 1537 1538 1540 1541 1544 1545 1547 1548 1550 1551 1553
1496 1502 1504 1524 1530 1534 1529 1517 1502 1490 1488 1487 1486 1486 1487 1489 1492 1494 1497 1501 1504 1506 1508 1511 1513 1515 1517 1518 1520 1521 1522 1523 1524 1525 1526 1528 1529 1531 1532 1534 1535 1537 1539 1540 1542 1543 1545 1546 1548
1483 1495 1511 1524 1538 1539 1527 1521 1513 1495 1491 1488 1487 1486 1487 1489 1492 1494 1497 1500 1503 1505 1507 1510 1511 1513 1515 1516 1517 1519 1519 1520 1521 1522 1523 1525 1526 1527 1528 1530 1531 1533 1534 1536 1537 1538 1540 1541 1543
1489 1496 1506 1519 1522 1536 1536 1523 1494 1490 1487 1487 1486 1486 1488 1489 1492 1494 1496 1499 1502 1504 1507 1508 1510 1512 1513 1514 1516 1517 1518 1518 1519 1520 1521 1522 1523 1524 1525 1526 1527 1529 1530 1531 1532 1534 1535 1536 1538
1477 1487 1499 1512 1521 1525 1528 1518 1485 1484 1483 1484 1485 1486 1488 1490 1492 1494 1497 1499 1501 1504 1506 1508 1509 1511 1512 1513 1515 1515 1516 1517 1518 1519 1519 1520 1521 1522 1522 1523 1524 1525 1526 1527 1528 1529 1530 1532 1533